Stations météo

Publicité
Bournemouth Airport, Grande-Bretagne (3862): Température de l'air & dewpoint: 18.01.2019 11:00:00 - 24.01.2019 11:00:00 (GMT)Bournemouth Airport, Grande-Bretagne (3862): Température de l'air -20cm & Température de l'air -100cm: 18.01.2019 11:00:00 - 24.01.2019 11:00:00 (GMT)Bournemouth Airport, Grande-Bretagne (3862): Vitesse du vent & gusts: 18.01.2019 11:00:00 - 24.01.2019 11:00:00 (GMT)Bournemouth Airport, Grande-Bretagne (3862): Direction du vent: 18.01.2019 11:00:00 - 24.01.2019 11:00:00 (GMT)Bournemouth Airport, Grande-Bretagne (3862): reduced air pressure: 18.01.2019 11:00:00 - 24.01.2019 11:00:00 (GMT)Bournemouth Airport, Grande-Bretagne (3862): visibility: 18.01.2019 11:00:00 - 24.01.2019 11:00:00 (GMT)Bournemouth Airport, Grande-Bretagne (3862): Ensoleillement: 18.01.2019 11:00:00 - 24.01.2019 11:00:00 (GMT)Bournemouth Airport, Grande-Bretagne (3862): Quantités de précipitations: 18.01.2019 11:00:00 - 24.01.2019 11:00:00 (GMT)
Date & Time tt [°C] td [°C] tt -20cm [°C] tt -100cm [°C] ff [km/h] ff [knt] fx [km/h] fx [knt] dd ppp [hPa] vv [km] sd [min] rr [mm]
24.01.2019 11:00:00 1,5 1,1 - - 2 1 - - N 1012,2 6 0 0,0
24.01.2019 10:00:00 -0,3 -0,6 - - 2 1 - - N 1012,1 6 0 0,0
24.01.2019 09:00:00 -1,4 -1,7 4,7 7,2 2 1 - - NNW 1011,8 8 0 0,0
24.01.2019 08:00:00 -3,0 -3,3 - - 5 3 - - ENE 1011,1 7 0 0,0
24.01.2019 07:00:00 -2,8 -3,2 - - 2 1 - - SW 1010,8 7 0 0,0
24.01.2019 06:00:00 -3,2 -3,6 - - 2 1 - - N 1010,8 7 0 0,0
24.01.2019 05:00:00 -2,9 -3,3 - - 2 1 - - E 1011,0 4,8 0 0,0
24.01.2019 04:00:00 -3,1 -3,5 - - 4 2 - - NE 1010,7 6 0 0,0
24.01.2019 03:00:00 -4,2 -4,7 - - 4 2 - - NW 1010,7 6 0 0,0
24.01.2019 02:00:00 -3,5 -3,8 - - 2 1 - - NW 1010,3 1,5 0 0,0
24.01.2019 01:00:00 -3,2 -3,6 - - 2 1 - - NNE 1010,8 3,8 0 0,0
24.01.2019 00:00:00 -2,6 -3,0 - - 2 1 - - W 1010,0 5 - 0,0
23.01.2019 23:00:00 -2,4 -2,8 - - 4 2 - - ENE 1009,2 9 0 0,0
23.01.2019 22:00:00 -3,1 -3,7 - - 2 1 - - NW 1008,7 10 0 0,0
23.01.2019 21:00:00 -2,4 -3,3 - - 4 2 - - WNW 1008,8 10 0 0,0
23.01.2019 20:00:00 -1,6 -2,5 - - 8 4 - - NW 1008,3 15 0 0,0
23.01.2019 19:00:00 -1,5 -2,9 - - 2 1 - - WNW 1007,9 10 0 0,0
23.01.2019 18:00:00 -0,6 -3,6 - - 8 4 - - WNW 1007,6 10 0 0,0
23.01.2019 17:00:00 2,2 -1,4 - - 9 5 - - N 1006,9 10 0 0,0
23.01.2019 16:00:00 3,5 -1,3 - - 18 10 - - N 1006,1 10 30 0,0
23.01.2019 15:00:00 4,4 -0,9 - - 24 13 - - N 1005,3 40 60 0,0
23.01.2019 14:00:00 4,6 -0,8 - - 26 14 - - N 1004,4 10 60 0,0
23.01.2019 13:00:00 4,4 0,0 - - 26 14 - - N 1004,1 10 60 0,0
23.01.2019 12:00:00 3,7 0,9 - - 22 12 - - N 1004,0 10 54 0,0
23.01.2019 11:00:00 2,6 -0,2 - - 21 11 - - N 1003,9 10 30 0,2
23.01.2019 10:00:00 1,5 -0,4 - - 9 5 - - N 1002,8 10 54 0,0
23.01.2019 09:00:00 -1,4 -2,4 5,2 7,4 11 6 - - NNW 1001,7 10 0 0,0
23.01.2019 08:00:00 -1,2 -2,2 - - 16 9 - - NNW 1001,0 10 0 0,0
23.01.2019 07:00:00 -1,6 -2,3 - - 13 7 - - NW 1000,1 10 0 0,0
23.01.2019 06:00:00 -0,7 -1,4 - - 13 7 - - NNW 999,4 10 0 0,0
23.01.2019 05:00:00 -0,6 -1,0 - - 13 7 - - NW 999,1 30 0 0,0
23.01.2019 04:00:00 -1,9 -2,3 - - 11 6 - - NW 998,1 23 0 0,0
23.01.2019 03:00:00 -1,7 -1,9 - - 2 1 - - NW 998,0 8 0 0,0
23.01.2019 02:00:00 -1,3 -1,5 - - 2 1 - - NW 997,8 6 0 0,0
23.01.2019 01:00:00 -2,4 -2,6 - - 5 3 - - N 998,3 0,3 0 0,0
23.01.2019 00:00:00 -3,7 -4,0 - - 8 4 - - W 998,1 0,3 - 0,0
22.01.2019 23:00:00 -0,3 -0,4 - - 5 3 - - NNW 998,2 7 0 0,0
22.01.2019 22:00:00 -2,5 -3,1 - - 9 5 - - WNW 998,7 2,8 0 0,0
22.01.2019 21:00:00 -1,5 -2,1 - - 8 4 - - W 998,7 7 0 0,0
22.01.2019 20:00:00 0,9 0,3 - - 8 4 - - NW 998,7 10 0 0,0
22.01.2019 19:00:00 0,7 0,2 - - 15 8 - - W 999,0 10 0 0,0
22.01.2019 18:00:00 1,1 0,4 - - 11 6 - - W 999,4 40 0 0,0
22.01.2019 17:00:00 3,0 1,9 - - 13 7 - - WNW 999,5 60 0 0,2
22.01.2019 16:00:00 3,8 2,4 - - 21 11 - - WNW 999,8 14 0 0,8
22.01.2019 15:00:00 4,5 2,9 - - 15 8 - - W 1000,4 8 0 0,4
22.01.2019 14:00:00 5,1 2,7 - - 8 4 - - SW 1001,1 10 0 0,2
22.01.2019 13:00:00 5,3 2,2 - - 13 7 - - WSW 1002,7 11 0 0,0
22.01.2019 12:00:00 5,8 2,4 - - 11 6 - - WSW 1003,7 28 18 0,0
22.01.2019 11:00:00 4,7 2,1 - - 11 6 - - W 1004,6 10 54 0,2
22.01.2019 10:00:00 2,7 2,2 - - 9 5 - - W 1004,9 10 54 0,0
22.01.2019 09:00:00 -0,4 -0,7 5,9 7,5 9 5 - - W 1005,0 10 0 0,0
22.01.2019 08:00:00 -2,0 -2,3 - - 8 4 - - - 1005,4 10 0 0,0
22.01.2019 07:00:00 -0,6 -1,1 - - 2 1 - - WSW 1005,3 6 0 0,0
22.01.2019 06:00:00 -0,2 -0,6 - - 4 2 - - W 1005,7 23 0 0,0
22.01.2019 05:00:00 -0,3 -1,1 - - 8 4 - - W 1005,8 18 0 0,0
22.01.2019 04:00:00 1,2 0,4 - - 9 5 - - W 1006,1 28 0 0,0
22.01.2019 03:00:00 2,6 1,7 - - 9 5 - - W 1006,5 25 0 0,0
22.01.2019 02:00:00 3,8 2,3 - - 5 3 - - WNW 1006,6 30 0 1,0
22.01.2019 01:00:00 6,7 5,5 - - 28 15 57 31 W 1007,5 5 0 2,8
22.01.2019 00:00:00 -3,7 -4,0 - - 8 4 - - W 998,1 0,3 - 2,6
21.01.2019 23:00:00 8,0 5,4 - - 24 13 - - SSW 1009,6 16 0 0,0
21.01.2019 22:00:00 7,8 4,0 - - 18 10 - - SSW 1011,4 25 0 0,0
21.01.2019 21:00:00 7,5 4,1 - - 18 10 - - SSW 1013,5 10 0 0,0
21.01.2019 20:00:00 7,0 3,0 - - 13 7 - - SSW 1014,9 28 0 0,0
21.01.2019 19:00:00 6,2 3,4 - - 13 7 - - SSW 1016,2 10 0 0,0
21.01.2019 18:00:00 5,2 2,5 - - 8 4 - - SSW 1017,8 10 0 0,0
21.01.2019 17:00:00 5,1 1,4 - - 8 4 - - S 1018,9 10 0 0,0
21.01.2019 16:00:00 5,5 1,4 - - 8 4 - - S 1019,9 10 6 0,0
21.01.2019 15:00:00 5,4 0,8 - - 9 5 - - SSW 1020,9 10 6 0,0
21.01.2019 14:00:00 5,6 0,0 - - 11 6 - - S 1021,9 10 18 0,0
21.01.2019 13:00:00 5,2 0,4 - - 8 4 - - SW 1022,9 10 0 0,0
21.01.2019 12:00:00 5,0 -0,2 - - 4 2 - - WNW 1024,0 24 0 0,0
21.01.2019 11:00:00 3,7 3,4 - - 2 1 - - - 1024,7 5 0 0,0
21.01.2019 10:00:00 2,5 2,2 - - 2 1 - - - 1025,4 3,8 0 0,0
21.01.2019 09:00:00 1,7 1,4 5,7 7,7 8 4 - - WNW 1025,2 3,0 0 0,0
21.01.2019 08:00:00 0,5 0,3 - - 5 3 - - WNW 1025,0 2,7 0 0,0
21.01.2019 07:00:00 0,6 0,4 - - 0 0 - - N 1024,9 2,8 0 0,0
21.01.2019 06:00:00 0,4 0,2 - - 2 1 - - WSW 1024,8 2,8 0 0,0
21.01.2019 05:00:00 -0,2 -0,4 - - 2 1 - - NW 1025,0 3,7 0 0,0
21.01.2019 04:00:00 -0,7 -0,9 - - 2 1 - - W 1025,0 2,8 0 0,0
21.01.2019 03:00:00 -2,2 -2,5 - - 2 1 - - WNW 1025,1 0,5 0 0,0
21.01.2019 02:00:00 -1,4 -1,7 - - 4 2 - - N 1025,1 1,8 0 0,0
21.01.2019 01:00:00 -2,1 -2,4 - - 5 3 - - N 1025,0 1,5 0 0,0
21.01.2019 00:00:00 -2,0 -2,5 - - 2 1 - - N 1024,8 0,1 - 0,0
20.01.2019 23:00:00 -1,1 -1,7 - - 2 1 - - NE 1024,5 3,0 0 0,0
20.01.2019 22:00:00 0,4 -0,3 - - 4 2 - - NE 1023,9 3,6 0 0,0
20.01.2019 21:00:00 0,8 0,1 - - 4 2 - - NNW 1023,3 4,5 0 0,0
20.01.2019 20:00:00 -0,4 -1,3 - - 8 4 - - NNW 1023,2 4,0 0 0,0
20.01.2019 19:00:00 0,1 -1,3 - - 5 3 - - NNW 1022,4 6 0 0,0
20.01.2019 18:00:00 2,4 -0,1 - - 5 3 - - N 1021,6 10 0 0,0
20.01.2019 17:00:00 3,4 0,1 - - 9 5 - - N 1020,9 10 0 0,0
20.01.2019 16:00:00 4,1 0,1 - - 11 6 - - N 1020,1 13 60 0,0
20.01.2019 15:00:00 4,3 0,2 - - 9 5 - - N 1019,4 10 60 0,0
20.01.2019 14:00:00 4,0 -0,5 - - 11 6 - - NNE 1018,9 10 60 0,0
20.01.2019 13:00:00 3,5 -0,2 - - 11 6 - - NNE 1018,6 10 60 0,0
20.01.2019 12:00:00 2,3 -0,3 - - 13 7 - - NE 1018,6 10 12 0,0
20.01.2019 11:00:00 2,0 0,0 - - 16 9 - - NE 1018,2 10 0 0,0
20.01.2019 10:00:00 3,0 1,1 - - 9 5 - - NNE 1017,4 10 0 0,0
20.01.2019 09:00:00 1,8 0,9 6,4 7,7 8 4 - - N 1016,4 10 0 0,0
20.01.2019 08:00:00 0,5 -0,4 - - 8 4 - - - 1015,3 10 0 0,0
20.01.2019 07:00:00 1,6 0,0 - - 8 4 - - NE 1014,1 16 0 0,0
20.01.2019 06:00:00 3,1 1,3 - - 11 6 - - NE 1013,4 16 0 0,0
20.01.2019 05:00:00 3,7 2,5 - - 9 5 - - NNE 1012,9 8 0 0,0
20.01.2019 04:00:00 4,0 2,9 - - 9 5 - - NE 1012,5 8 0 0,0
20.01.2019 03:00:00 4,2 2,9 - - 13 7 - - ENE 1012,0 9 0 0,0
20.01.2019 02:00:00 4,4 3,3 - - 13 7 - - ENE 1011,6 6 0 0,0
20.01.2019 01:00:00 4,6 3,7 - - 11 6 - - ENE 1011,1 5 0 0,0
20.01.2019 00:00:00 4,8 3,8 - - 15 8 - - ENE 1010,6 6 - 0,0
19.01.2019 23:00:00 5,1 4,1 - - 13 7 - - ENE 1009,9 8 0 0,0
19.01.2019 22:00:00 5,3 4,4 - - 11 6 - - ENE 1009,4 8 0 0,0
19.01.2019 21:00:00 5,5 4,8 - - 11 6 - - E 1008,8 8 0 0,0
19.01.2019 20:00:00 5,8 5,1 - - 9 5 - - E 1008,2 9 0 0,2
19.01.2019 19:00:00 6,0 5,0 - - 11 6 - - E 1007,6 10 0 0,0
19.01.2019 18:00:00 6,0 5,3 - - 9 5 - - ENE 1007,4 9 0 0,2
19.01.2019 17:00:00 6,4 5,5 - - 8 4 - - E 1006,9 8 0 0,0
19.01.2019 16:00:00 6,4 5,4 - - 11 6 - - ESE 1006,5 14 0 0,0
19.01.2019 15:00:00 6,6 5,6 - - 15 8 - - SE 1006,2 10 0 0,4
19.01.2019 14:00:00 6,6 5,7 - - 15 8 - - SE 1006,3 9 0 1,0
19.01.2019 13:00:00 6,7 5,6 - - 16 9 - - SE 1006,6 13 0 0,0
19.01.2019 12:00:00 6,7 5,7 - - 18 10 - - SE 1007,1 5 0 0,8
19.01.2019 11:00:00 6,3 5,5 - - 16 9 - - SE 1007,3 5 0 2,2
19.01.2019 10:00:00 6,4 5,5 - - 18 10 - - SE 1007,2 4,5 0 2,2
19.01.2019 09:00:00 6,4 5,4 6,0 7,7 18 10 - - SSE 1007,1 5 0 0,6
19.01.2019 08:00:00 6,3 5,6 - - 18 10 - - SE 1006,7 8 0 0,2
19.01.2019 07:00:00 6,3 5,4 - - 21 11 - - SSE 1006,8 7 0 1,0
19.01.2019 06:00:00 6,5 5,5 - - 21 11 - - SSE 1007,0 4,3 0 0,4
19.01.2019 05:00:00 6,5 5,3 - - 21 11 - - SSE 1007,3 10 0 0,0
19.01.2019 04:00:00 6,1 4,6 - - 18 10 - - SSE 1007,9 15 0 0,0
19.01.2019 03:00:00 5,8 4,2 - - 21 11 - - SSE 1008,5 20 0 0,2
19.01.2019 02:00:00 5,7 4,5 - - 22 12 - - SSE 1008,9 1,9 0 0,8
19.01.2019 01:00:00 5,9 4,6 - - 21 11 - - S 1009,3 4,6 0 0,6
19.01.2019 00:00:00 5,6 4,8 - - 21 11 - - S 1010,0 7 - 0,6
18.01.2019 23:00:00 5,5 3,3 - - 22 12 - - S 1010,4 9 0 0,8
18.01.2019 22:00:00 6,2 2,2 - - 26 14 - - S 1010,6 10 0 0,4
18.01.2019 21:00:00 6,4 2,0 - - 22 12 - - S 1010,9 10 0 0,2
18.01.2019 20:00:00 6,7 0,7 - - 24 13 - - S 1011,2 21 0 0,0
18.01.2019 19:00:00 6,8 -1,5 - - 26 14 - - S 1011,5 10 0 0,0
18.01.2019 18:00:00 6,4 -2,4 - - 26 14 - - SSE 1011,7 10 0 0,0
18.01.2019 17:00:00 6,3 -2,2 - - 24 13 - - SSE 1012,3 10 0 0,0
18.01.2019 16:00:00 6,0 -3,2 - - 22 12 - - S 1012,9 10 0 0,0
18.01.2019 15:00:00 6,3 -2,2 - - 28 15 - - S 1013,3 10 6 0,0
18.01.2019 14:00:00 6,6 -1,7 - - 24 13 - - S 1014,0 40 0 0,0
18.01.2019 13:00:00 6,3 -2,3 - - 28 15 - - S 1014,6 10 0 0,0
18.01.2019 12:00:00 6,6 -1,4 - - 28 15 - - S 1015,3 10 0 0,0
18.01.2019 11:00:00 6,4 -0,9 - - 26 14 - - S 1016,1 40 6 0,0

tt = Température de l'air
td = dewpoint
tt -20cm = Température de l'air -20cm
tt -100cm = Température de l'air -100cm
ff = Vitesse du vent
fx = gusts
dd = Direction du vent
ppp = reduced air pressure
vv = visibility
sd = Ensoleillement
rr = Quantités de précipitations

stations d'obs. à proximité